Theta_e
328 330 339 339 339 337 338 338 335 335 336 334 334 337 338 338 343 343 334 330 333 330 333 327 323 314 329 333 330 330 330 335 334 332 327 320 311 308 308 309 309 309 310 310 310 310 310 311 311
335 338 337 336 339 340 334 334 336 335 335 334 336 337 340 337 336 335 332 328 336 329 333 330 326 314 329 334 333 332 332 335 334 333 329 320 310 308 308 309 310 309 309 310 310 310 311 312 313
328 333 335 336 338 336 336 334 334 336 335 336 338 340 340 335 335 334 331 330 335 331 331 326 319 313 329 334 334 334 334 335 334 331 324 314 309 308 308 309 310 310 310 311 312 313 315 317 317
327 330 332 336 338 333 336 334 336 336 335 336 338 339 336 334 333 334 328 330 333 333 332 321 314 312 325 332 333 333 333 332 328 321 313 309 309 308 309 309 310 312 313 314 316 318 318 317 316
328 328 335 335 334 333 334 334 336 335 335 336 338 338 333 336 334 330 328 330 331 329 321 313 313 322 325 328 329 327 324 319 314 310 309 309 308 309 311 312 313 315 317 318 318 318 316 314 314
328 328 335 337 334 332 334 334 336 335 335 337 339 338 337 336 332 327 328 331 330 325 317 311 313 317 324 325 325 321 315 311 310 309 309 309 310 312 314 316 317 318 318 317 316 315 314 314 315
329 330 332 333 333 335 334 333 334 334 336 337 338 339 336 335 330 327 330 332 330 330 323 312 313 313 315 314 314 312 311 311 310 310 311 312 314 316 317 318 318 317 316 315 315 315 315 316 317
328 329 331 330 333 335 332 332 334 334 335 336 336 339 335 333 330 327 331 332 330 333 329 324 326 327 320 313 312 313 314 312 311 312 314 316 318 319 319 318 317 317 317 316 316 317 317 317 318
328 330 331 330 332 333 330 330 330 331 335 335 334 337 336 331 330 328 331 333 329 331 329 325 319 314 314 314 313 317 316 315 314 316 318 320 318 318 318 318 318 318 319 319 319 320 320 321 322
328 330 329 327 328 331 330 329 330 330 333 334 335 338 334 331 330 329 331 333 332 329 329 326 329 327 329 324 320 320 319 321 319 319 319 319 320 320 320 320 320 320 321 322 323 324 326 327 328
328 329 327 328 327 327 327 328 328 330 332 333 336 338 332 332 330 329 329 329 331 332 332 332 329 329 330 330 323 332 324 329 323 319 319 322 320 320 321 322 323 325 325 327 329 330 330 329 328
329 328 328 328 326 327 328 327 327 327 329 331 334 336 333 332 331 329 328 321 333 333 333 333 328 331 329 328 330 325 322 321 320 320 320 321 323 324 325 326 328 330 332 332 331 329 330 329 326
328 328 328 327 326 326 327 327 327 327 329 329 335 334 335 333 332 329 328 327 325 326 329 330 329 330 331 332 330 331 324 320 323 323 323 324 325 327 329 330 332 332 331 332 330 328 326 324 324
327 327 327 327 327 327 327 327 327 327 328 333 335 334 336 334 332 331 329 329 328 326 323 321 328 330 329 328 326 325 325 326 325 327 326 327 327 329 330 334 332 331 330 330 328 326 324 322 324
327 328 327 327 327 327 327 327 327 330 330 333 336 335 336 335 334 332 331 331 327 327 326 326 328 328 326 320 321 326 326 326 329 333 336 332 330 330 335 332 330 329 329 328 323 323 320 319 318
329 328 330 327 327 327 327 330 326 330 331 334 335 335 336 335 335 334 333 332 329 327 326 327 325 322 322 322 324 327 328 334 335 334 334 333 330 331 331 332 327 322 320 320 321 319 315 313 312
328 330 330 328 327 327 327 328 326 331 332 333 334 334 332 334 335 335 334 333 329 328 327 325 321 321 324 331 329 332 333 335 334 333 330 331 332 331 329 322 318 318 319 318 315 312 311 310 308
325 328 328 329 327 327 327 327 327 330 329 333 334 333 332 332 333 334 335 334 332 331 330 326 324 326 328 330 335 335 336 335 331 331 331 331 330 326 318 315 316 316 314 312 310 309 306 305 304
324 325 328 327 328 328 327 327 326 329 331 332 334 333 332 332 333 337 335 334 333 332 331 330 330 332 332 332 333 332 333 331 331 332 331 330 323 316 315 315 314 312 310 308 305 303 303 303 303
325 328 327 326 326 326 327 328 326 329 329 331 333 334 334 334 335 336 334 333 333 333 334 333 332 332 332 333 333 331 331 330 331 331 329 321 315 314 313 311 310 308 305 303 303 303 302 301 300
320 323 328 328 327 325 325 328 327 326 328 330 331 333 334 334 336 335 333 333 332 333 333 334 333 333 333 333 333 333 332 330 329 327 319 314 313 311 310 308 305 303 303 303 303 302 301 300 299
317 320 322 324 328 329 326 333 328 326 325 328 330 331 333 333 335 334 334 334 332 332 333 333 332 333 333 333 333 332 331 330 326 318 313 312 310 308 306 304 303 303 303 303 301 300 299 298 297
323 320 321 321 325 325 328 330 327 326 326 325 328 332 333 333 334 334 332 330 329 330 331 332 332 332 331 330 329 329 328 324 317 313 311 309 306 304 303 302 303 303 302 300 299 298 296 295 294
322 322 321 321 321 324 325 329 328 327 325 325 325 331 333 333 332 331 328 327 326 327 329 329 329 329 327 326 325 324 321 315 312 310 308 305 304 303 302 303 303 301 299 298 296 295 294 294 293
322 322 323 324 324 328 324 327 327 326 324 323 324 330 333 331 328 326 323 322 321 323 323 324 324 324 322 320 318 314 313 310 308 306 305 304 303 303 303 303 300 299 297 295 294 294 293 293 293
323 321 324 329 328 326 323 325 327 322 318 319 325 331 328 325 323 321 318 317 318 318 319 319 317 317 313 312 311 309 306 306 305 303 302 302 303 303 303 302 300 296 294 294 293 293 293 292 292
323 324 318 320 317 324 325 324 322 319 317 318 322 322 321 319 318 314 312 313 315 315 314 313 312 311 309 307 306 306 305 304 303 304 306 310 311 308 301 298 295 294 294 293 293 293 292 292 291
320 318 322 321 325 328 326 324 326 321 319 317 318 318 317 315 313 311 310 311 310 309 309 308 307 306 305 305 304 306 308 309 310 311 311 311 306 300 297 295 294 293 293 293 292 292 291 291 290
319 321 321 322 321 326 324 322 309 321 320 316 316 317 314 311 309 309 309 308 308 307 306 305 307 308 310 311 312 312 312 311 310 309 303 300 299 297 295 294 293 293 293 292 292 291 290 289 289
314 319 321 323 321 317 319 320 310 312 318 315 316 314 312 310 308 308 306 305 305 308 309 310 311 311 311 312 313 312 310 311 305 301 301 299 297 295 294 293 293 292 292 291 291 290 289 289 288
Wind_Speed
4 4 4 4 3 5 10 4 16 5 6 7 11 10 13 17 6 7 21 16 17 18 21 19 15 13 13 13 14 14 13 16 11 9 8 9 10 10 10 11 10 11 11 11 11 10 10 10 10
3 2 6 6 4 7 8 8 17 8 12 12 10 4 7 6 7 20 20 20 15 16 21 18 15 15 14 14 16 15 15 14 13 9 7 8 8 8 8 8 9 10 10 10 9 10 10 10 11
8 5 3 3 6 10 4 1 8 14 14 10 5 10 8 6 17 15 19 25 15 14 15 18 16 18 17 16 16 15 14 13 9 4 3 5 5 6 6 7 7 8 9 9 9 9 10 10 10
7 5 7 5 12 16 4 5 15 10 4 3 16 9 10 10 13 13 26 24 15 21 17 17 18 19 18 15 14 13 11 8 4 2 1 3 4 5 6 7 7 8 9 8 8 8 8 9 9
8 7 4 7 16 17 7 3 14 9 11 9 7 9 13 8 12 23 25 23 20 19 16 18 19 19 16 14 12 10 8 6 4 2 2 3 5 6 7 8 7 6 6 6 7 7 8 9 10
7 6 4 9 16 10 4 24 12 11 12 12 17 13 8 11 19 24 24 21 18 15 18 19 21 19 16 13 11 9 6 5 4 3 4 6 7 7 6 6 6 6 6 7 8 9 9 10 10
13 5 9 15 16 4 11 4 8 7 11 7 17 7 9 20 21 23 22 20 19 14 18 20 20 18 15 13 11 8 6 5 6 6 7 8 7 6 6 6 6 6 7 8 9 9 10 11 12
17 5 12 16 13 2 10 6 5 12 6 12 4 6 9 27 24 24 22 20 20 15 15 20 19 17 14 12 10 8 7 7 8 8 8 7 6 6 6 6 6 7 7 8 9 10 11 12 13
13 4 10 16 12 5 8 4 3 7 14 8 4 9 7 35 27 26 25 22 22 20 14 15 16 14 12 11 10 9 8 8 9 8 6 5 5 5 4 5 6 7 8 9 10 11 12 13 13
12 9 13 12 8 4 7 6 11 4 13 7 12 13 18 35 31 30 29 27 25 23 19 15 14 11 8 6 9 10 10 7 7 7 7 4 2 2 3 4 6 7 8 10 11 12 13 15 17
13 12 14 5 8 14 6 4 2 7 7 15 22 22 27 32 30 28 26 25 26 26 24 22 21 13 17 10 9 10 9 7 5 5 4 3 1 2 3 7 8 10 10 12 14 16 17 18 19
5 26 19 10 10 13 2 4 3 8 5 8 22 20 29 31 30 27 21 23 28 25 23 20 18 15 12 10 5 4 6 5 5 4 3 2 1 3 4 6 8 10 11 12 13 15 14 15 15
21 9 18 15 9 10 6 5 2 2 7 9 23 22 29 28 26 24 20 17 20 22 23 22 19 15 14 12 12 7 6 5 4 2 2 0 1 3 5 7 8 8 9 11 16 14 15 15 15
27 25 10 18 11 7 4 3 4 6 11 16 17 22 26 27 26 23 22 19 20 17 18 21 20 18 18 17 12 11 7 6 6 3 1 1 3 5 7 6 7 8 11 13 13 14 14 16 13
14 20 12 22 11 5 7 6 6 10 13 17 15 17 23 24 24 24 23 20 20 20 17 17 20 19 16 15 13 11 10 7 4 2 1 4 5 6 6 7 9 11 11 9 11 11 13 14 13
11 10 18 16 12 6 4 5 10 14 18 17 18 18 20 23 24 23 22 20 20 21 20 20 20 19 16 14 13 11 8 6 5 4 6 6 6 6 8 7 11 10 10 11 10 11 11 12 13
7 5 16 14 15 7 8 6 9 21 16 15 18 16 19 21 22 23 23 20 21 21 19 20 19 18 17 14 13 11 10 10 10 10 8 7 6 7 8 9 9 8 9 10 10 10 11 12 13
8 6 19 14 15 17 10 8 6 9 17 12 19 17 19 22 24 22 22 21 19 19 18 17 17 17 16 16 14 14 14 12 10 8 8 8 6 6 8 7 6 6 7 7 8 10 11 13 14
5 14 9 14 8 17 17 12 8 15 15 17 24 23 18 20 22 23 25 22 21 18 18 16 17 15 16 15 14 14 14 11 10 9 7 6 6 7 6 4 4 5 6 8 9 10 11 14 18
11 11 19 9 7 2 12 12 10 9 14 18 18 23 22 22 25 25 24 22 21 21 19 17 16 17 15 11 10 12 12 11 9 8 6 5 4 2 2 2 3 5 7 8 10 13 14 15 18
6 4 6 4 7 2 6 13 17 8 10 17 15 9 20 25 28 28 25 23 21 21 20 20 21 20 17 17 18 17 15 11 9 7 4 2 0 2 3 4 5 6 7 10 13 14 16 16 14
2 1 3 3 14 10 7 6 14 14 8 9 18 18 18 24 28 28 25 23 23 25 25 25 22 20 21 20 20 17 14 13 9 5 3 3 3 3 3 4 5 7 10 12 14 15 15 15 15
4 8 6 3 2 3 4 3 11 15 14 13 15 26 27 26 27 25 24 24 24 23 22 21 20 18 17 16 14 16 15 11 7 6 6 4 3 3 3 4 7 10 13 14 14 14 13 14 14
10 6 5 4 1 3 6 2 5 12 16 13 17 26 31 32 29 26 24 24 23 21 21 20 19 19 20 20 18 15 11 10 11 9 6 4 3 3 4 8 11 13 13 14 14 14 14 14 12
5 3 2 2 2 0 1 7 6 4 8 3 16 25 28 33 36 32 26 22 21 20 20 20 20 19 18 17 16 14 13 11 8 6 4 4 4 6 8 11 13 14 13 13 13 13 13 13 14
9 8 2 1 3 3 3 4 3 5 6 7 12 29 32 31 28 25 23 23 22 22 21 19 18 18 18 19 19 18 16 11 9 8 7 5 6 9 12 14 13 11 11 12 13 14 14 13 14
4 4 2 5 1 3 3 4 5 7 5 7 18 27 25 23 21 24 23 22 21 20 20 20 21 23 23 22 20 17 14 12 11 9 8 12 15 15 11 11 9 9 11 12 12 13 14 14 14
1 6 4 3 4 3 3 3 2 7 9 8 11 20 24 24 25 23 22 21 22 23 23 24 24 23 22 20 19 16 10 7 5 6 6 11 11 10 8 8 9 10 11 12 12 13 14 15 16
3 3 2 0 1 1 4 2 3 6 12 12 11 20 26 28 25 22 20 24 26 26 27 27 26 24 21 15 8 4 4 1 3 9 8 8 7 7 7 8 9 10 11 11 12 14 15 15 16
1 3 4 2 3 0 3 1 4 6 10 19 18 24 25 24 22 23 29 31 31 28 27 24 16 10 9 3 2 5 6 11 10 10 8 7 7 8 8 8 9 10 10 11 13 14 14 15 15
Wind_Direction
15 67 22 289 254 230 239 205 249 139 144 63 66 50 98 49 26 116 140 155 174 169 153 151 147 144 137 141 141 140 137 136 122 104 88 66 59 65 77 86 99 96 92 85 79 74 65 56 48
330 310 313 267 240 246 236 133 262 101 98 105 95 99 71 79 85 133 138 151 173 165 154 157 155 150 141 136 140 138 136 135 116 99 65 46 49 64 79 91 99 95 84 79 72 62 53 46 43
352 311 265 220 238 249 258 69 115 99 120 142 104 50 57 93 124 133 154 143 165 149 162 163 162 156 147 134 137 134 134 132 127 114 58 38 48 71 87 91 88 91 83 70 59 52 45 39 33
322 267 262 251 252 244 126 291 114 120 119 150 114 84 82 130 136 156 145 146 149 139 183 165 162 159 158 152 145 141 141 146 144 125 70 67 85 88 88 87 76 65 67 60 51 41 31 25 19
309 269 251 232 254 264 125 64 154 165 151 167 168 88 103 110 145 141 144 144 155 170 167 165 161 154 161 160 154 151 151 157 167 172 143 108 96 91 88 87 87 74 61 47 34 23 16 12 12
292 241 257 248 242 251 293 172 162 184 158 135 108 110 120 135 143 146 144 149 154 167 155 155 159 161 161 163 165 166 169 171 168 144 119 108 107 107 101 91 72 53 38 26 18 13 10 8 7
258 271 258 257 246 137 264 141 180 150 136 162 129 115 138 146 155 149 145 151 151 159 152 150 155 160 161 163 168 170 167 159 142 127 117 120 118 103 83 64 49 35 23 16 9 3 0 358 356
258 269 268 254 268 174 318 180 218 156 100 119 152 142 155 154 160 148 148 157 155 155 165 153 153 159 162 167 167 160 148 141 138 135 132 122 105 79 59 50 33 23 13 6 358 354 352 348 344
257 247 234 251 249 205 198 235 204 89 125 108 97 94 162 154 158 153 155 169 159 154 161 157 159 159 164 167 164 155 147 145 146 137 120 100 92 66 42 28 18 8 360 353 348 345 343 339 341
237 210 240 242 344 110 195 261 151 148 137 114 102 129 145 149 160 160 167 174 162 162 166 168 154 146 137 164 164 166 161 160 154 145 119 108 82 55 4 1 359 353 345 341 339 338 340 339 341
233 218 229 260 65 315 161 195 129 203 169 172 154 156 155 154 163 167 182 178 173 170 172 168 160 167 161 184 175 176 174 172 150 121 141 138 65 22 0 354 348 347 342 340 339 347 342 338 341
243 219 238 257 121 287 231 68 196 238 88 146 173 175 160 163 168 172 180 180 175 179 179 176 163 163 168 168 167 185 165 159 159 156 160 118 65 357 353 344 341 344 340 340 331 328 323 320 326
212 230 217 251 167 244 313 245 268 233 146 110 160 164 162 167 170 173 175 185 178 185 184 180 161 172 172 175 176 191 173 166 150 132 126 111 324 337 340 337 341 328 325 312 316 319 323 328 331
204 217 246 229 218 225 263 268 111 201 133 139 156 161 166 170 171 172 172 179 177 176 184 178 167 182 188 182 180 179 167 172 173 176 227 298 319 325 324 331 315 316 312 312 320 322 330 330 333
199 194 231 232 193 232 224 247 202 154 145 147 151 161 168 173 173 174 174 182 174 175 180 181 176 180 187 178 174 168 178 178 157 181 308 291 307 313 321 311 312 314 308 319 312 320 321 326 325
163 184 215 208 188 213 221 243 187 159 146 156 160 162 173 175 176 173 173 174 176 168 180 184 184 182 180 172 172 172 178 163 173 188 232 264 291 305 294 294 308 312 315 321 328 325 333 336 340
187 181 199 181 199 213 192 245 140 155 147 164 155 162 177 178 179 180 173 179 178 170 182 186 182 179 174 172 165 170 174 182 203 219 248 265 281 290 302 314 318 317 318 332 339 343 347 345 345
203 198 194 188 189 206 202 243 139 166 143 192 164 170 181 184 185 178 168 175 171 174 182 186 179 179 179 181 170 179 189 199 226 238 247 268 279 295 306 313 320 330 337 347 353 353 351 341 347
243 198 206 177 193 192 190 223 180 169 172 202 164 166 182 191 188 174 174 172 172 175 173 185 178 181 181 189 182 193 202 225 230 243 264 285 302 307 310 330 347 351 356 0 358 3 359 346 344
259 203 206 203 126 358 198 204 235 164 185 183 160 166 178 183 180 183 173 175 174 170 174 181 184 186 191 191 191 214 219 228 231 236 251 273 293 309 350 10 15 7 9 7 2 356 355 349 348
350 350 162 185 186 283 309 217 203 207 184 179 157 188 176 179 179 175 176 177 179 178 179 180 184 185 177 187 197 202 215 227 218 220 240 252 156 64 41 24 18 19 8 356 350 346 342 345 356
276 173 359 347 163 201 222 212 207 197 189 160 178 194 184 179 173 180 176 172 179 177 180 189 194 192 193 202 211 219 216 215 217 211 188 138 103 57 35 28 16 1 351 344 338 342 344 346 348
145 155 191 19 184 119 204 218 208 185 206 178 174 179 182 190 174 172 170 178 188 188 187 188 191 190 189 191 196 198 206 204 195 161 148 128 106 80 45 11 356 348 342 339 342 346 346 351 358
136 138 94 79 104 185 187 223 256 185 195 176 181 182 182 169 168 168 177 183 184 181 182 185 185 184 184 189 189 197 202 182 162 155 146 116 80 45 11 356 344 339 341 342 347 352 356 357 359
124 115 107 150 161 142 280 187 263 15 356 174 174 170 167 152 156 160 169 177 175 175 176 181 183 179 179 182 181 173 163 150 141 125 117 97 59 17 354 340 337 339 345 348 352 352 352 349 350
184 169 114 5 157 110 359 199 255 86 40 11 121 135 132 147 158 163 169 174 174 175 176 173 169 165 158 153 148 143 135 133 129 110 89 59 24 356 334 328 328 336 346 349 348 346 346 347 347
160 186 312 101 279 107 202 252 282 145 104 85 99 117 126 137 146 152 165 173 172 168 163 160 157 150 144 141 135 131 126 105 86 69 20 335 323 309 304 313 328 336 343 343 343 341 341 343 346
236 132 84 333 146 185 178 262 228 158 156 147 129 126 131 137 145 154 168 165 158 154 149 146 143 137 129 124 117 104 78 60 23 349 312 283 278 279 302 317 329 334 339 338 338 339 343 346 348
90 133 122 26 353 164 146 216 330 194 169 155 149 142 138 147 156 164 160 151 148 144 142 139 135 128 120 109 107 51 53 105 297 270 254 255 285 300 310 323 328 331 333 333 338 342 342 344 344
286 333 160 175 218 116 125 33 349 316 139 144 147 141 151 161 165 163 151 145 143 142 138 134 130 127 125 85 241 233 196 233 236 236 257 283 292 300 309 316 319 323 328 334 335 336 336 335 334